Location: Chippewa Lake
(41.0698°N, 81.9010°W)
Time: 20:44:57
(UTC+00:00)

Cosmos 2074 Rocket - Pass Details

Date: 09 May 2021
Orbit: 968 x 986 km, 82.9° (Epoch: 17 June)

Event Time Altitude Azimuth Distance (km) Brightness Sun altitude
Rises 02:53:18 0° 357° (N) 3,702 7.9 -21.9°
Reaches altitude 10° 02:55:54 10° 2° (N) 2,751 7.0 -22.2°
Maximum altitude 03:02:04 54° 79° (ENE) 1,184 4.2 -22.9°
Enters shadow 03:03:31 45° 121° (ESE) 1,320 4.2 -23.1°
